Tracking 35237 objects as of 6-Sep-2026
HD Live streaming from Space Station
objects crossing your sky now

WSF-M

Track WSF-M now!
10-day predictions
WSF-M is classified as:


NORAD ID: 59481
Int'l Code: 2024-070A
Launch date: April 11, 2024
Source: United States (US)
Launch site: AIR FORCE WESTERN TEST RANGE (AFWTR)
Your satellite tracking list
Your tracking list is empty




NASA's NSSDC Master Catalog

Two Line Element Set (TLE):
1 59481U 24070A   26248.64990139  .00000019  00000-0  29265-4 0  9991
2 59481  98.7200 255.5146 0005899  90.8811 269.3042 14.20748612124526
Source of the keplerian elements: AFSPC